Weather History for KMQB - January, 2014

Change the Weather History Date:

Friday, January 31, 2014

  Actual Average (KBRL) Record (KBRL)
Temperature  
Mean Temperature 16 °F 27 °F  
Max Temperature 19 °F 36 °F 70 °F (1989)
Min Temperature 13 °F 18 °F -20 °F (1996)
Degree Days  
Heating Degree Days 49 38  
Month to date heating degree days 1207  
Since 1 July heating degree days 3401  
Cooling Degree Days 0 0  
Month to date cooling degree days 0  
Year to date cooling degree days 0  
Moisture  
Dew Point 13 °F    
Average Humidity 87    
Maximum Humidity 93    
Minimum Humidity 79    
Precipitation  
Precipitation 0.01 in 0.04 in 0.71 in (2002)
Month to date precipitation 1.24  
Year to date precipitation 1.24  
Sea Level Pressure  
Sea Level Pressure 30.11 in    
Wind  
Wind Speed 9 mph (North)    
Max Wind Speed 14 mph    
Max Gust Speed -    
Visibility 6 miles    
Events Snow    
T = Trace of Precipitation, MM = Missing Value Source: NWS Daily Summary

Daily Weather History Graph

Daily Weather History Graph

Search for Another Location

Airport or City:

Trip Planner

Search our weather history database for the weather conditions in past years. The results will help you decide how hot, cold, wet, or windy it might be!

Date:

Astronomy

Jan. 31, 2014 Rise Set
Actual Time 7:13 AM CST 5:19 PM CST
Civil Twilight 6:44 AM CST 5:48 PM CST
Nautical Twilight 6:11 AM CST 6:21 PM CST
Astronomical Twilight 5:39 AM CST 6:53 PM CST
Moon 7:22 AM CST (1/31) 6:44 PM CST (1/31)
Length of Visible Light 11h 04m
Length of Day
10h 06m
New Moon, 1% of the Moon is Illuminated
Jan 31
New Moon
Feb 6
First Quarter
Feb 14
Full
Feb 22
Last Quarter
Mar 1
New

Hourly Weather History & Observations

Time (CST) Temp. Windchill Dew Point Humidity Pressure Visibility Wind Dir Wind Speed Gust Speed Precip Events Conditions
12:15 AM 19.8 °F 7.1 °F 14.9 °F 81% 30.04 in 10.0 mi NW 12.7 mph - N/A   Clear
12:35 AM 19.8 °F 8.3 °F 15.3 °F 83% 30.03 in 10.0 mi NNW 10.4 mph - N/A   Clear
12:55 AM 19.4 °F 6.0 °F 15.3 °F 84% 30.03 in 10.0 mi NNW 13.8 mph - N/A   Scattered Clouds
1:15 AM 19.4 °F 8.6 °F 15.4 °F 85% 30.05 in 10.0 mi NNW 9.2 mph - N/A   Mostly Cloudy
1:35 AM 19.2 °F 5.8 °F 15.3 °F 85% 30.05 in 10.0 mi NNW 13.8 mph - N/A   Mostly Cloudy
1:55 AM 19.2 °F 9.3 °F 15.3 °F 85% 30.05 in 10.0 mi NNW 8.1 mph - N/A   Scattered Clouds
2:15 AM 19.4 °F 8.6 °F 14.9 °F 83% 30.06 in 10.0 mi NNW 9.2 mph - N/A   Scattered Clouds
2:35 AM 19.0 °F 6.1 °F 14.4 °F 82% 30.07 in 10.0 mi NNW 12.7 mph - N/A   Scattered Clouds
2:55 AM 18.9 °F 7.2 °F 14.2 °F 82% 30.07 in 10.0 mi NNW 10.4 mph - N/A   Mostly Cloudy
3:15 AM 18.5 °F 8.4 °F 13.3 °F 80% 30.07 in 10.0 mi NNW 8.1 mph - N/A   Overcast
3:35 AM 18.1 °F 5.0 °F 13.3 °F 81% 30.07 in 10.0 mi NNW 12.7 mph - N/A   Mostly Cloudy
3:55 AM 18.1 °F 5.6 °F 13.6 °F 83% 30.07 in 10.0 mi NNW 11.5 mph - N/A   Mostly Cloudy
4:15 AM 17.6 °F 5.0 °F 13.1 °F 83% 30.07 in 10.0 mi North 11.5 mph - N/A   Mostly Cloudy
4:35 AM 17.2 °F 7.8 °F 12.7 °F 83% 30.08 in 10.0 mi North 6.9 mph - N/A   Overcast
4:55 AM 17.1 °F 5.8 °F 12.2 °F 81% 30.10 in 10.0 mi NNW 9.2 mph - N/A   Overcast
5:15 AM 16.7 °F 6.2 °F 11.3 °F 79% 30.12 in 10.0 mi NNW 8.1 mph - N/A   Overcast
5:35 AM 16.3 °F 4.9 °F 11.3 °F 81% 30.12 in 10.0 mi NNW 9.2 mph - N/A   Mostly Cloudy
5:55 AM 15.4 °F 3.0 °F 10.8 °F 82% 30.12 in 10.0 mi NNW 10.4 mph - N/A   Scattered Clouds
6:15 AM 15.3 °F 2.8 °F 10.6 °F 82% 30.13 in 10.0 mi NNW 10.4 mph - N/A   Mostly Cloudy
6:35 AM 14.9 °F 5.0 °F 10.2 °F 82% 30.13 in 10.0 mi NNW 6.9 mph - N/A   Mostly Cloudy
6:55 AM 15.3 °F 5.4 °F 10.2 °F 80% 30.13 in 10.0 mi North 6.9 mph - N/A   Mostly Cloudy
7:15 AM 14.9 °F 6.1 °F 9.9 °F 80% 30.15 in 10.0 mi NNW 5.8 mph - N/A   Overcast
7:35 AM 14.9 °F 6.1 °F 9.9 °F 80% 30.17 in 10.0 mi WNW 5.8 mph - N/A   Overcast
7:55 AM 14.9 °F 4.0 °F 9.9 °F 80% 30.18 in 7.0 mi NW 8.1 mph - N/A Snow Light Snow
8:15 AM 14.2 °F 3.1 °F 10.2 °F 84% 30.18 in 1.8 mi NW 8.1 mph - N/A Snow Light Snow
8:35 AM 13.8 °F 4.9 °F 10.4 °F 86% 30.16 in 2.5 mi North 5.8 mph - N/A Snow Light Snow
8:55 AM 14.0 °F 6.5 °F 10.4 °F 86% 30.18 in 4.0 mi NW 4.6 mph - N/A Snow Light Snow
9:15 AM 13.8 °F 6.2 °F 10.2 °F 86% 30.17 in 2.0 mi NNW 4.6 mph - N/A Snow Light Snow
9:35 AM 14.0 °F 3.9 °F 10.8 °F 87% 30.19 in 2.0 mi NNW 6.9 mph - N/A Snow Light Snow
9:55 AM 13.8 °F 2.7 °F 10.4 °F 86% 30.19 in 2.0 mi NNW 8.1 mph - N/A Snow Light Snow
10:15 AM 14.0 °F 2.9 °F 11.3 °F 89% 30.19 in 1.0 mi NNW 8.1 mph - N/A Snow Light Snow
10:35 AM 14.0 °F 2.9 °F 11.1 °F 88% 30.20 in 1.2 mi North 8.1 mph - N/A Snow Light Snow
10:55 AM 14.0 °F 2.0 °F 11.1 °F 88% 30.19 in 1.2 mi North 9.2 mph - N/A Snow Light Snow
11:15 AM 14.7 °F 2.1 °F 11.7 °F 88% 30.19 in 2.0 mi North 10.4 mph - N/A Snow Light Snow
11:35 AM 14.5 °F 1.1 °F 11.5 °F 88% 30.18 in 1.2 mi North 11.5 mph - N/A Snow Light Snow
11:55 AM 14.9 °F 5.0 °F 11.8 °F 88% 30.19 in 1.5 mi North 6.9 mph - N/A Snow Light Snow
12:15 PM 15.3 °F 4.4 °F 12.2 °F 88% 30.18 in 1.2 mi North 8.1 mph - N/A Snow Light Snow
12:35 PM 15.3 °F 3.5 °F 12.2 °F 88% 30.17 in 1.5 mi North 9.2 mph - N/A Snow Light Snow
12:55 PM 15.3 °F 2.8 °F 12.2 °F 88% 30.16 in 1.5 mi North 10.4 mph - N/A Snow Light Snow
1:15 PM 14.7 °F 2.9 °F 11.3 °F 86% 30.15 in 1.5 mi North 9.2 mph - N/A Snow Light Snow
1:35 PM 14.7 °F 3.8 °F 11.7 °F 88% 30.14 in 1.2 mi North 8.1 mph - N/A Snow Light Snow
1:55 PM 14.7 °F 3.8 °F 11.3 °F 86% 30.14 in 2.0 mi NNE 8.1 mph - N/A Snow Light Snow
2:15 PM 14.9 °F 6.1 °F 12.2 °F 89% 30.13 in 0.8 mi NNE 5.8 mph - N/A Snow Light Snow
2:35 PM 15.4 °F 5.6 °F 12.6 °F 88% 30.13 in 1.8 mi North 6.9 mph - N/A Snow Light Snow
2:55 PM 15.6 °F 5.9 °F 12.7 °F 88% 30.13 in 2.0 mi North 6.9 mph - 0.01 in Snow Light Snow
3:15 PM 15.8 °F 7.2 °F 13.1 °F 89% 30.13 in 5.0 mi NNE 5.8 mph - N/A Snow Light Snow
3:35 PM 15.8 °F 10.2 °F 13.1 °F 89% 30.12 in 1.5 mi ENE 3.5 mph - N/A Snow Light Snow
3:55 PM 15.8 °F 7.2 °F 13.5 °F 90% 30.11 in 3.0 mi ENE 5.8 mph - N/A Snow Light Snow
4:15 PM 16.2 °F 7.6 °F 13.6 °F 90% 30.12 in 3.0 mi NE 5.8 mph - N/A Snow Light Snow
4:35 PM 16.2 °F 6.5 °F 13.6 °F 90% 30.10 in 4.0 mi NE 6.9 mph - N/A Snow Light Snow
4:55 PM 16.2 °F 6.5 °F 13.8 °F 90% 30.11 in 10.0 mi NE 6.9 mph - N/A   Overcast
5:15 PM 16.5 °F 11.0 °F 14.0 °F 90% 30.11 in 7.0 mi ENE 3.5 mph - N/A Snow Light Snow
5:35 PM 16.7 °F 9.6 °F 14.5 °F 91% 30.10 in 10.0 mi ENE 4.6 mph - N/A Snow Light Snow
5:55 PM 17.1 °F 10.0 °F 14.5 °F 90% 30.11 in 7.0 mi ENE 4.6 mph - N/A Snow Light Snow
6:15 PM 17.1 °F 7.6 °F 14.9 °F 91% 30.10 in 7.0 mi ENE 6.9 mph - N/A Snow Light Snow
6:35 PM 17.2 °F 7.8 °F 14.9 °F 91% 30.10 in 7.0 mi NE 6.9 mph - N/A Snow Light Snow
6:55 PM 17.4 °F 8.0 °F 15.3 °F 91% 30.11 in 5.0 mi NE 6.9 mph - N/A Snow Light Snow
7:15 PM 17.6 °F 7.3 °F 15.4 °F 91% 30.10 in 7.0 mi NE 8.1 mph - N/A Snow Light Snow
7:35 PM 17.6 °F 7.3 °F 15.6 °F 92% 30.10 in 5.0 mi NE 8.1 mph - N/A   Overcast
7:55 PM 17.6 °F 7.3 °F 15.8 °F 93% 30.10 in 7.0 mi NE 8.1 mph - N/A Snow Light Snow
8:15 PM 17.8 °F 8.5 °F 15.8 °F 92% 30.10 in 7.0 mi NE 6.9 mph - N/A   Mostly Cloudy
8:35 PM 18.0 °F 6.1 °F 15.8 °F 91% 30.08 in 7.0 mi ENE 10.4 mph - N/A   Scattered Clouds
8:55 PM 18.1 °F 6.3 °F 16.2 °F 92% 30.08 in 7.0 mi ENE 10.4 mph - N/A   Mostly Cloudy
9:15 PM 18.1 °F 6.3 °F 16.2 °F 92% 30.08 in 10.0 mi NE 10.4 mph - N/A   Overcast
9:35 PM 18.3 °F 6.6 °F 16.3 °F 92% 30.08 in 10.0 mi NE 10.4 mph - N/A   Overcast
9:55 PM 18.3 °F 6.6 °F 16.3 °F 92% 30.07 in 7.0 mi NE 10.4 mph - N/A Snow Light Snow
10:15 PM 18.3 °F 6.6 °F 16.5 °F 93% 30.06 in 4.0 mi NE 10.4 mph - N/A Snow Light Snow
10:35 PM 18.5 °F 7.5 °F 16.7 °F 93% 30.06 in 5.0 mi NE 9.2 mph - N/A Snow Light Snow
10:55 PM 18.5 °F 7.5 °F 16.7 °F 93% 30.06 in 5.0 mi NE 9.2 mph - N/A Snow Light Snow
11:15 PM 18.5 °F 7.5 °F 16.7 °F 93% 30.05 in 7.0 mi ENE 9.2 mph - N/A   Overcast
11:35 PM 18.7 °F 7.8 °F 16.9 °F 93% 30.04 in 7.0 mi ENE 9.2 mph - N/A   Overcast
11:55 PM 18.5 °F 6.8 °F 16.7 °F 93% 30.03 in 10.0 mi ENE 10.4 mph - N/A   Overcast